TimeCDT,TemperatureF,Dew PointF,Humidity,Sea Level PressureIn,VisibilityMPH,Wind Direction,Wind SpeedMPH,Gust SpeedMPH,PrecipitationIn,Events,Conditions,WindDirDegrees,DateUTC
12:15 AM,71.6,68.0,88,29.97,9.0,North,4.6,-,0.00,,Clear,10,2013-06-14 05:15:00
12:35 AM,69.8,68.0,94,29.98,8.0,North,4.6,-,0.00,,Clear,350,2013-06-14 05:35:00
12:55 AM,69.8,68.0,94,29.97,10.0,NNE,4.6,-,0.00,,Clear,20,2013-06-14 05:55:00
1:15 AM,71.6,68.0,88,29.96,10.0,NNE,4.6,-,0.00,,Clear,30,2013-06-14 06:15:00
1:35 AM,68.0,68.0,100,29.97,10.0,Calm,Calm,-,0.00,,Clear,0,2013-06-14 06:35:00
1:55 AM,68.0,68.0,100,29.98,10.0,Calm,Calm,-,0.00,,Clear,0,2013-06-14 06:55:00
2:15 AM,69.8,69.8,100,29.98,10.0,Calm,Calm,-,0.00,,Clear,0,2013-06-14 07:15:00
2:35 AM,69.8,69.8,100,29.98,9.0,Calm,Calm,-,0.00,,Clear,0,2013-06-14 07:35:00
2:55 AM,69.8,68.0,94,29.98,8.0,Calm,Calm,-,0.00,,Clear,0,2013-06-14 07:55:00
3:15 AM,69.8,68.0,94,29.98,10.0,Calm,Calm,-,0.00,,Clear,0,2013-06-14 08:15:00
3:35 AM,66.2,66.2,100,29.98,10.0,Calm,Calm,-,0.00,,Clear,0,2013-06-14 08:35:00
3:55 AM,64.4,64.4,100,29.97,10.0,Calm,Calm,-,0.00,,Clear,0,2013-06-14 08:55:00
4:15 AM,66.2,66.2,100,29.97,8.0,Calm,Calm,-,0.00,,Clear,0,2013-06-14 09:15:00
4:35 AM,66.2,66.2,100,29.97,10.0,Calm,Calm,-,0.00,,Clear,0,2013-06-14 09:35:00
4:55 AM,64.4,64.4,100,29.99,10.0,Calm,Calm,-,0.00,,Clear,0,2013-06-14 09:55:00
5:15 AM,64.4,64.4,100,29.99,9.0,Calm,Calm,-,0.00,,Clear,0,2013-06-14 10:15:00
5:35 AM,64.4,64.4,100,30.00,10.0,NNE,5.8,-,0.00,,Clear,20,2013-06-14 10:35:00
5:55 AM,64.4,64.4,100,30.00,8.0,NNE,5.8,-,0.00,,Clear,20,2013-06-14 10:55:00
6:15 AM,64.4,64.4,100,30.00,10.0,Calm,Calm,-,0.00,,Clear,0,2013-06-14 11:15:00
6:35 AM,64.4,64.4,100,30.01,10.0,Calm,Calm,-,0.00,,Clear,0,2013-06-14 11:35:00
6:55 AM,64.4,64.4,100,30.02,10.0,NNE,5.8,-,0.00,,Clear,30,2013-06-14 11:55:00
7:15 AM,66.2,66.2,100,30.02,10.0,NNE,5.8,-,0.00,,Clear,30,2013-06-14 12:15:00
7:50 AM,71.6,64.4,78,30.04,10.0,ENE,8.1,-,N/A,,Partly Cloudy,60,2013-06-14 12:50:00
8:55 AM,75.2,59.0,57,30.06,10.0,East,5.8,-,N/A,,Partly Cloudy,90,2013-06-14 13:55:00
12:50 PM,82.4,60.8,48,30.03,10.0,NNE,8.1,-,N/A,,Scattered Clouds,30,2013-06-14 17:50:00
1:50 PM,84.2,59.0,42,30.02,10.0,NNE,11.5,20.7,N/A,,Partly Cloudy,20,2013-06-14 18:50:00
2:50 PM,84.2,57.2,40,30.02,10.0,NNE,9.2,18.4,N/A,,Partly Cloudy,20,2013-06-14 19:50:00
3:50 PM,84.2,59.0,42,30.00,10.0,NNE,11.5,18.4,N/A,,Scattered Clouds,30,2013-06-14 20:50:00
4:50 PM,84.2,59.0,42,29.98,10.0,NNE,9.2,17.3,N/A,,Scattered Clouds,30,2013-06-14 21:50:00
5:50 PM,84.2,59.0,42,29.98,10.0,NE,10.4,-,N/A,,Scattered Clouds,40,2013-06-14 22:50:00
6:50 PM,82.4,59.0,45,29.99,10.0,NE,9.2,-,N/A,,Scattered Clouds,50,2013-06-14 23:50:00
7:50 PM,78.8,62.6,57,29.99,10.0,ENE,5.8,-,N/A,,Scattered Clouds,70,2013-06-15 00:50:00
9:35 PM,75.2,62.6,65,29.99,10.0,Calm,Calm,-,0.00,,Clear,0,2013-06-15 02:35:00
9:55 PM,75.2,62.6,65,29.99,9.0,East,5.8,-,0.00,,Clear,90,2013-06-15 02:55:00
10:15 PM,73.4,62.6,69,30.00,10.0,ESE,4.6,-,0.00,,Clear,110,2013-06-15 03:15:00
10:35 PM,71.6,64.4,78,30.01,9.0,Calm,Calm,-,0.00,,Clear,0,2013-06-15 03:35:00
10:55 PM,73.4,64.4,73,30.02,9.0,Calm,Calm,-,0.00,,Clear,0,2013-06-15 03:55:00
11:15 PM,71.6,64.4,78,30.03,10.0,Calm,Calm,-,0.00,,Clear,0,2013-06-15 04:15:00
11:35 PM,71.6,64.4,78,30.04,10.0,Calm,Calm,-,0.00,,Clear,0,2013-06-15 04:35:00
11:55 PM,71.6,64.4,78,30.04,10.0,Calm,Calm,-,0.00,,Clear,0,2013-06-15 04:55:00